GM4SUF Weather Reports


time (UTC)temp
F
wind
direction
speed
knots
gust
knots
rain 1hr
in
rain 24hr
in
rain mn
in
humidity
%
barometer
mb
20260506115044 55 94 3.5 7.8 0.00 0.00 0.00 100 1014.2
20260506115034 55 89 3.5 7.0 0.00 0.00 0.00 100 1014.1
20260506114032 54 81 3.5 7.8 0.00 0.00 0.00 100 1014.2
20260506113535 54 109 4.3 10.4 0.00 0.00 0.00 100 1014.3
20260506113029 54 119 3.5 10.4 0.00 0.00 0.00 100 1014.3
20260506112534 53 78 3.5 7.0 0.00 0.00 0.00 100 1014.4
20260506112039 53 98 3.5 7.0 0.00 0.00 0.00 100 1014.4
20260506111531 52 98 3.5 8.7 0.00 0.00 0.00 100 1014.4
20260506111029 52 117 3.5 8.7 0.00 0.00 0.00 100 1014.5
20260506110540 53 106 2.6 7.8 0.00 0.00 0.00 100 1014.5
20260506110302 52 94 2.6 6.1 0.00 0.00 0.00 100 1014.5
20260506105527 51 78 2.6 6.1 0.00 0.00 0.00 100 1014.5
20260506105028 50 82 2.6 5.2 0.00 0.00 0.00 100 1014.5
20260506104526 50 86 2.6 5.2 0.00 0.00 0.00 100 1014.5
20260506104259 49 95 2.6 7.0 0.00 0.00 0.00 100 1014.5
20260506103523 49 66 3.5 7.0 0.00 0.00 0.00 100 1014.5
20260506103026 49 76 3.5 6.1 0.00 0.00 0.00 100 1014.5
20260506102521 49 72 3.5 6.1 0.00 0.00 0.00 100 1014.6
20260506102019 48 89 2.6 6.1 0.00 0.00 0.00 100 1014.7
20260506101519 48 80 3.5 7.0 0.00 0.00 0.00 100 1014.7
20260506101017 48 122 3.5 7.0 0.00 0.00 0.00 100 1014.6
20260506100517 48 71 3.5 6.1 0.00 0.00 0.00 100 1014.5
20260506100255 48 85 3.5 7.0 0.00 0.00 0.00 100 1014.6
20260506095518 48 92 3.5 7.0 0.00 0.00 0.00 100 1014.5
20260506095019 48 69 3.5 7.0 0.00 0.00 0.00 100 1014.6
20260506094517 48 78 3.5 7.0 0.00 0.00 0.00 100 1014.6
20260506094016 49 71 3.5 6.1 0.00 0.00 0.00 100 1014.7
20260506093517 49 65 3.5 6.1 0.00 0.00 0.00 100 1014.7
20260506093022 49 80 4.3 8.7 0.00 0.00 0.00 100 1014.8
20260506092523 49 75 3.5 8.7 0.00 0.00 0.00 100 1014.8
20260506092022 49 80 3.5 6.1 0.00 0.00 0.00 100 1014.8
20260506091520 49 80 3.5 6.1 0.00 0.00 0.00 100 1014.9
20260506091015 50 71 3.5 7.0 0.00 0.00 0.00 100 1014.9
20260506090516 50 59 3.5 7.0 0.00 0.00 0.00 100 1015.0
20260506090248 50 94 2.6 6.1 0.00 0.00 0.00 100 1015.1
20260506085516 50 67 2.6 6.1 0.00 0.00 0.00 100 1015.2
20260506085248 49 104 2.6 6.1 0.00 0.00 0.00 100 1015.3
20260506084516 49 83 2.6 5.2 0.00 0.00 0.00 100 1015.4
20260506084025 48 76 2.6 5.2 0.00 0.00 0.00 100 1015.4
20260506084021 48 83 2.6 5.2 0.00 0.00 0.00 100 1015.5
20260506083002 48 65 2.6 5.2 0.00 0.00 0.00 100 1015.6
20260506082535 48 55 1.7 4.3 0.00 0.00 0.00 100 1015.6
20260506082516 48 66 2.6 4.3 0.00 0.00 0.00 100 1015.5
20260506081501 48 52 1.7 4.3 0.00 0.00 0.00 100 1015.7
20260506081001 47 52 2.6 4.3 0.00 0.00 0.00 100 1015.8
20260506080502 47 39 1.7 4.3 0.00 0.00 0.00 100 1015.6
20260506073452 44 258 0.9 2.6 0.00 0.00 0.00 100 1015.7
20260506073238 43 257 0.9 2.6 0.00 0.00 0.00 100 1015.7
20260506072453 42 257 1.7 3.5 0.00 0.00 0.00 100 1015.7
20260506071952 42 258 1.7 3.5 0.00 0.00 0.00 100 1015.8
20260506071450 41 258 0.9 2.6 0.00 0.00 0.00 100 1015.8
20260506071225 41 258 0.9 2.6 0.00 0.00 0.00 100 1015.9
20260506070449 40 258 0.0 1.7 0.00 0.00 0.00 100 1015.9
20260506062442 35 257 0.9 2.6 0.00 0.00 0.00 100 1016.1
20260506061945 35 209 0.0 2.6 0.00 0.00 0.00 100 1016.0
20260506061438 34 209 0.0 0.0 0.00 0.00 0.00 100 1016.0
20260506060936 34 209 0.0 0.9 0.00 0.00 0.00 100 1016.1
20260506060436 34 209 0.9 1.7 0.00 0.00 0.00 100 1016.1
20260506050928 31 209 0.9 2.6 0.00 0.00 0.00 100 1016.2
20260506050427 31 209 0.0 0.0 0.00 0.00 0.00 100 1016.3
20260506044413 31 207 0.0 0.0 0.00 0.00 0.00 100 1016.3
20260506043912 31 207 0.0 0.0 0.00 0.00 0.00 100 1016.4
20260506043412 31 207 0.9 2.6 0.00 0.00 0.00 100 1016.4
20260506042913 31 207 0.9 2.6 0.00 0.00 0.00 100 1016.3
20260506042412 31 207 0.9 2.6 0.00 0.00 0.00 100 1016.3
20260506042203 31 207 0.0 1.7 0.00 0.00 0.00 100 1016.4
20260506041649 31 207 0.0 2.6 0.00 0.00 0.00 100 1016.5
20260506041203 31 207 0.0 2.6 0.00 0.00 0.00 100 1016.5
20260506040412 31 207 0.0 1.7 0.00 0.00 0.00 100 1016.5
20260506035914 32 207 0.9 2.6 0.00 0.00 0.00 100 1016.5
20260506035413 32 207 1.7 2.6 0.00 0.00 0.00 100 1016.5
20260506034914 32 207 1.7 2.6 0.00 0.00 0.00 100 1016.5
20260506034413 32 207 1.7 3.5 0.00 0.00 0.00 100 1016.5
20260506034201 31 207 1.7 3.5 0.00 0.00 0.00 100 1016.6
20260506033412 31 207 1.7 3.5 0.00 0.00 0.00 100 1016.7
20260506032914 32 207 1.7 3.5 0.00 0.00 0.00 100 1016.7
20260506032717 32 207 1.7 2.6 0.00 0.00 0.00 100 1016.8
20260506032431 32 207 2.6 3.5 0.00 0.00 0.00 100 1016.7
20260506031408 32 207 1.7 2.6 0.00 0.00 0.00 100 1016.7
20260506030909 32 207 1.7 2.6 0.00 0.00 0.00 100 1016.8
20260506030410 32 207 1.7 2.6 0.00 0.00 0.00 100 1016.8
20260506025909 32 207 1.7 2.6 0.00 0.00 0.00 100 1016.8
20260506025410 31 207 0.9 2.6 0.00 0.00 0.00 100 1016.9
20260506025212 31 207 0.9 1.7 0.00 0.00 0.00 100 1016.8
20260506024405 32 207 1.7 2.6 0.00 0.00 0.00 100 1016.8
20260506024150 31 207 1.7 2.6 0.00 0.00 0.00 100 1016.8
20260506023648 31 207 0.9 2.6 0.00 0.00 0.00 100 1016.8
20260506022907 31 207 0.0 1.7 0.00 0.00 0.00 100 1016.8
20260506022404 31 207 0.9 3.5 0.00 0.00 0.00 100 1016.8
20260506021902 32 207 1.7 3.5 0.00 0.00 0.00 100 1016.8
20260506021403 32 207 1.7 2.6 0.00 0.00 0.00 100 1016.9
20260506021137 32 207 1.7 2.6 0.00 0.00 0.00 100 1016.9
20260506020402 32 207 1.7 2.6 0.00 0.00 0.00 100 1016.9
20260506015905 32 207 1.7 2.6 0.00 0.00 0.00 100 1017.0
20260506015405 32 207 0.9 2.6 0.00 0.00 0.00 100 1017.0
20260506014903 33 207 0.9 3.5 0.00 0.00 0.00 100 1017.0
20260506014403 33 207 2.6 5.2 0.00 0.00 0.00 100 1017.0
20260506013906 33 207 2.6 5.2 0.00 0.00 0.00 100 1017.1
20260506013404 32 260 1.7 3.5 0.00 0.00 0.00 100 1017.1
20260506012907 33 261 2.6 3.5 0.00 0.00 0.00 100 1017.2
20260506012402 33 261 1.7 5.2 0.00 0.00 0.00 100 1017.2
20260506011904 33 261 0.9 5.2 0.00 0.00 0.00 100 1017.2
20260506011402 33 261 1.7 5.2 0.00 0.00 0.00 100 1017.3
20260506011217 32 234 1.7 2.6 0.00 0.00 0.00 100 1017.2
20260506010921 32 261 2.6 5.2 0.00 0.00 0.00 100 1017.2
20260506010152 32 234 2.6 3.5 0.00 0.00 0.00 100 1017.1
20260506005357 32 233 2.6 3.5 0.00 0.00 0.00 100 1017.2
20260506004857 32 233 2.6 6.1 0.00 0.00 0.00 100 1017.2
20260506004356 32 234 2.6 6.1 0.00 0.00 0.00 100 1017.3
20260506003857 32 234 2.6 6.1 0.00 0.00 0.00 100 1017.3
20260506003357 32 234 2.6 6.1 0.00 0.00 0.00 100 1017.4
20260506002856 32 227 2.6 6.1 0.00 0.00 0.00 100 1017.4
20260506002353 32 228 2.6 6.1 0.00 0.00 0.00 100 1017.4
20260506001853 32 234 2.6 6.1 0.00 0.00 0.00 100 1017.4
20260506001633 32 233 1.7 4.3 0.00 0.00 0.00 100 1017.4
20260506000852 32 234 2.6 4.3 0.00 0.00 0.00 100 1017.4
20260506000629 32 234 2.6 4.3 0.00 0.00 0.00 100 1017.5
20260505235850 32 234 2.6 3.5 0.00 0.00 0.00 100 1017.4
20260505235350 33 234 1.7 3.5 0.00 0.00 0.00 100 1017.5
20260505234851 33 233 1.7 2.6 0.00 0.00 0.00 100 1017.3
20260505234629 33 233 2.6 3.5 0.00 0.00 0.00 100 1017.4
20260505233851 34 233 2.6 3.5 0.00 0.00 0.00 100 1017.4
20260505233345 34 214 1.7 3.5 0.00 0.00 0.00 100 1017.4
20260505232837 35 214 1.7 3.5 0.00 0.00 0.00 100 1017.4
20260505232335 35 214 2.6 4.3 0.00 0.00 0.00 100 1017.5
20260505231837 35 214 1.7 4.3 0.00 0.00 0.00 100 1017.4
20260505231334 35 214 1.7 3.5 0.00 0.00 0.00 100 1017.5
20260505230833 36 214 1.7 3.5 0.00 0.00 0.00 100 1017.4
20260505230416 36 214 2.6 4.3 0.00 0.00 0.00 100 1017.5
20260505230359 36 214 2.6 3.5 0.00 0.00 0.00 100 1017.5
20260505225336 36 214 2.6 4.3 0.00 0.00 0.00 100 1017.6
20260505224840 37 214 2.6 3.5 0.00 0.00 0.00 100 1017.6
20260505224342 38 214 2.6 3.5 0.00 0.00 0.00 100 1017.7
20260505223806 38 214 2.6 4.3 0.00 0.00 0.00 100 1017.7
20260505223305 40 207 1.7 4.3 0.00 0.00 0.00 100 1017.7
20260505222806 40 169 1.7 4.3 0.00 0.00 0.00 100 1017.6
20260505222309 40 203 0.9 2.6 0.00 0.00 0.00 100 1017.6
20260505221808 40 203 0.9 1.7 0.00 0.00 0.00 100 1017.7
20260505221313 41 204 0.9 1.7 0.00 0.00 0.00 100 1017.7
20260505221056 41 204 0.9 2.6 0.00 0.00 0.00 100 1017.7
20260505220305 41 204 0.9 2.6 0.00 0.00 0.00 100 1017.7
20260505215809 41 203 0.9 2.6 0.00 0.00 0.00 100 1017.8
20260505215305 41 204 0.9 1.7 0.00 0.00 0.00 100 1017.8
20260505215019 41 203 0.9 2.6 0.00 0.00 0.00 100 1017.8
20260505214254 41 203 1.7 3.5 0.00 0.00 0.00 100 1017.7
20260505213753 42 204 1.7 3.5 0.00 0.00 0.00 100 1017.6
20260505213252 42 204 1.7 2.6 0.00 0.00 0.00 100 1017.6
20260505212750 42 204 0.9 1.7 0.00 0.00 0.00 100 1017.6
20260505212248 42 204 0.9 2.6 0.00 0.00 0.00 100 1017.5
20260505211748 42 204 0.9 3.5 0.00 0.00 0.00 100 1017.5
20260505211249 42 203 0.9 3.5 0.00 0.00 0.00 100 1017.5
20260505210749 43 194 0.0 0.9 0.00 0.00 0.00 100 1017.5
20260505210248 43 194 0.0 0.9 0.00 0.00 0.00 100 1017.6
20260505205747 43 194 0.9 1.7 0.00 0.00 0.00 100 1017.6
20260505205249 43 194 1.7 3.5 0.00 0.00 0.00 100 1017.6
20260505204749 43 194 1.7 3.5 0.00 0.00 0.00 100 1017.6
20260505204247 43 194 1.7 3.5 0.00 0.00 0.00 100 1017.5
20260505203747 43 194 1.7 3.5 0.00 0.00 0.00 100 1017.6
20260505203243 44 194 1.7 3.5 0.00 0.00 0.00 100 1017.6
20260505203011 44 134 0.9 2.6 0.00 0.00 0.00 100 1017.5
20260505202242 44 134 0.0 1.7 0.00 0.00 0.00 100 1017.6
20260505201742 44 134 0.0 0.9 0.00 0.00 0.00 100 1017.6
20260505201238 44 134 0.0 0.9 0.00 0.00 0.00 100 1017.6
20260505200739 44 134 0.0 0.9 0.00 0.00 0.00 100 1017.5
20260505200236 45 134 0.9 1.7 0.00 0.00 0.00 100 1017.5
20260505195734 45 134 0.9 1.7 0.00 0.00 0.00 100 1017.6
20260505195234 45 134 0.0 1.7 0.00 0.00 0.00 100 1017.6
20260505194731 45 134 0.0 0.0 0.00 0.00 0.00 100 1017.6
20260505194231 45 134 0.0 0.0 0.00 0.00 0.00 100 1017.6
20260505193733 45 134 0.0 0.0 0.00 0.00 0.00 100 1017.6
20260505193230 45 134 0.0 0.0 0.00 0.00 0.00 100 1017.5
20260505193001 45 134 0.0 0.0 0.00 0.00 0.00 100 1017.6
20260505192230 45 134 0.0 1.7 0.00 0.00 0.00 100 1017.5
20260505191733 45 134 0.9 1.7 0.00 0.00 0.00 100 1017.5
20260505191231 46 134 0.9 1.7 0.00 0.00 0.00 100 1017.4
20260505190724 46 134 0.0 1.7 0.00 0.00 0.00 100 1017.5
20260505190218 46 134 0.0 1.7 0.00 0.00 0.00 100 1017.4
20260505185706 46 134 0.9 3.5 0.00 0.00 0.00 100 1017.4
20260505185204 46 134 1.7 3.5 0.00 0.00 0.00 100 1017.4
20260505184702 46 134 2.6 6.1 0.00 0.00 0.00 100 1017.3
20260505184204 46 134 2.6 6.1 0.00 0.00 0.00 100 1017.3
20260505183703 46 123 2.6 7.0 0.00 0.00 0.00 100 1017.3
20260505183430 46 123 1.7 7.0 0.00 0.00 0.00 100 1017.3
20260505182705 47 127 1.7 4.3 0.00 0.00 0.00 100 1017.3
20260505182224 47 129 2.6 6.1 0.00 0.00 0.00 100 1017.3
20260505182218 47 127 2.6 4.3 0.00 0.00 0.00 100 1017.3
20260505181427 47 129 2.6 6.1 0.00 0.00 0.00 100 1017.3
20260505180702 47 138 1.7 4.3 0.00 0.00 0.00 100 1017.3
20260505180203 47 128 1.7 4.3 0.00 0.00 0.00 100 1017.3
20260505175702 47 149 2.6 7.0 0.00 0.00 0.00 100 1017.3
20260505175202 47 148 2.6 7.0 0.00 0.00 0.00 100 1017.3
20260505174701 48 128 2.6 7.0 0.00 0.00 0.00 100 1017.3
20260505174200 48 110 1.7 7.0 0.00 0.00 0.00 100 1017.3
20260505173700 48 117 1.7 3.5 0.00 0.00 0.00 100 1017.3
20260505173159 48 116 1.7 3.5 0.00 0.00 0.00 100 1017.3
20260505172658 48 117 2.6 5.2 0.00 0.00 0.00 100 1017.3
20260505172158 48 109 2.6 5.2 0.00 0.00 0.00 100 1017.3
20260505171659 48 111 2.6 6.1 0.00 0.00 0.00 100 1017.3
20260505171157 48 84 2.6 6.1 0.00 0.00 0.00 100 1017.2
20260505170658 49 103 2.6 5.2 0.00 0.00 0.00 100 1017.2
20260505170157 49 100 0.9 4.3 0.00 0.00 0.00 100 1017.1
20260505165656 48 176 0.9 3.5 0.00 0.00 0.00 100 1017.1
20260505165157 48 177 1.7 3.5 0.00 0.00 0.00 100 1017.1
20260505164659 48 177 1.7 3.5 0.00 0.00 0.00 100 1017.1
20260505164156 49 121 0.9 2.6 0.00 0.00 0.00 100 1017.2
20260505163656 49 121 0.9 2.6 0.00 0.00 0.00 100 1017.2
20260505163159 49 121 1.7 2.6 0.00 0.00 0.00 100 1017.2
20260505162656 49 121 1.7 3.5 0.00 0.00 0.00 100 1017.2
20260505162156 49 121 1.7 6.1 0.00 0.00 0.00 100 1017.1
20260505161656 49 121 1.7 6.1 0.00 0.00 0.00 100 1017.2
20260505161156 49 121 2.6 6.1 0.00 0.00 0.00 100 1017.2
20260505160702 49 119 2.6 6.1 0.00 0.00 0.00 100 1017.2
20260505160157 49 121 2.6 6.1 0.00 0.00 0.00 100 1017.2
20260505153157 49 141 3.5 7.8 0.00 0.00 0.00 100 1017.2
20260505152921 49 121 3.5 7.8 0.00 0.00 0.00 100 1017.2
20260505152151 49 125 3.5 9.6 0.00 0.00 0.00 100 1017.2
20260505151640 49 84 5.2 10.4 0.00 0.00 0.00 100 1017.3
20260505151138 49 37 6.1 10.4 0.00 0.00 0.00 100 1017.3
20260505150637 50 19 5.2 10.4 0.00 0.00 0.00 100 1017.3
20260505150401 50 38 3.5 10.4 0.00 0.00 0.00 100 1017.3
20260505140634 51 20 5.2 12.2 0.00 0.00 0.00 100 1017.0
20260505140134 51 50 5.2 12.2 0.00 0.00 0.00 100 1017.0
20260505130130 53 32 4.3 8.7 0.00 0.00 0.00 100 1017.1
20260505124635 51 331 4.3 7.8 0.00 0.00 0.00 100 1017.2
20260505124130 51 27 4.3 8.7 0.00 0.00 0.00 100 1017.3
20260505123620 52 32 4.3 8.7 0.00 0.00 0.00 100 1017.3
20260505123341 52 323 6.1 13.9 0.00 0.00 0.00 100 1017.1
20260505122609 52 355 7.0 13.9 0.00 0.00 0.00 100 1017.3
20260505122110 51 38 6.1 11.3 0.00 0.00 0.00 100 1017.1
20260505121612 50 38 5.2 11.3 0.00 0.00 0.00 100 1017.2
20260505121110 50 13 5.2 11.3 0.00 0.00 0.00 100 1017.2
20260505120610 49 38 7.0 12.2 0.00 0.00 0.00 100 1017.2
20260505120118 49 31 8.7 13.0 0.00 0.00 0.00 100 1017.2
20260505115610 49 19 8.7 14.8 0.00 0.00 0.00 100 1017.2